TimeCDT,TemperatureF,Dew PointF,Humidity,Sea Level PressureIn,VisibilityMPH,Wind Direction,Wind SpeedMPH,Gust SpeedMPH,PrecipitationIn,Events,Conditions,WindDirDegrees,DateUTC
12:53 AM,75.9,64.0,67,29.86,10.0,SSW,6.9,-,N/A,,Clear,200,2013-09-07 05:53:00
1:53 AM,75.0,64.0,69,29.86,10.0,SSW,6.9,-,N/A,,Clear,200,2013-09-07 06:53:00
2:53 AM,73.0,64.0,73,29.85,10.0,SSW,4.6,-,N/A,,Clear,200,2013-09-07 07:53:00
3:53 AM,72.0,64.0,76,29.85,10.0,SW,4.6,-,N/A,,Clear,220,2013-09-07 08:53:00
4:53 AM,71.1,64.9,81,29.84,10.0,Calm,Calm,-,N/A,,Clear,0,2013-09-07 09:53:00
5:53 AM,70.0,64.9,84,29.85,10.0,SW,3.5,-,N/A,,Clear,230,2013-09-07 10:53:00
6:53 AM,69.1,64.9,87,29.86,9.0,Calm,Calm,-,N/A,,Clear,0,2013-09-07 11:53:00
7:53 AM,71.1,66.9,87,29.87,9.0,Calm,Calm,-,N/A,,Clear,0,2013-09-07 12:53:00
8:53 AM,75.9,68.0,76,29.88,8.0,Calm,Calm,-,N/A,,Clear,0,2013-09-07 13:53:00
9:53 AM,80.1,69.1,69,29.89,8.0,NNE,4.6,-,N/A,,Clear,30,2013-09-07 14:53:00
10:53 AM,84.0,69.1,61,29.89,6.0,ENE,6.9,-,N/A,,Haze,70,2013-09-07 15:53:00
11:53 AM,87.1,69.1,55,29.90,10.0,ENE,10.4,-,N/A,,Clear,60,2013-09-07 16:53:00
12:53 PM,89.1,70.0,53,29.89,8.0,ENE,8.1,-,N/A,,Clear,70,2013-09-07 17:53:00
1:53 PM,91.0,69.1,48,29.89,10.0,NE,10.4,-,N/A,,Clear,50,2013-09-07 18:53:00
2:53 PM,91.9,68.0,45,29.89,10.0,NE,12.7,-,N/A,,Clear,40,2013-09-07 19:53:00
3:53 PM,93.0,64.9,39,29.88,10.0,NE,10.4,-,N/A,,Clear,50,2013-09-07 20:53:00
4:53 PM,91.0,64.0,41,29.89,8.0,NNE,10.4,-,N/A,,Clear,30,2013-09-07 21:53:00
5:53 PM,91.0,64.9,42,29.90,10.0,NE,5.8,-,N/A,,Clear,50,2013-09-07 22:53:00
6:53 PM,89.1,64.0,43,29.91,10.0,NNE,6.9,-,N/A,,Clear,30,2013-09-07 23:53:00
7:53 PM,84.9,66.9,55,29.93,10.0,NNE,5.8,-,N/A,,Clear,30,2013-09-08 00:53:00
8:53 PM,84.0,66.0,55,29.94,10.0,NE,10.4,18.4,N/A,,Clear,40,2013-09-08 01:53:00
9:53 PM,80.1,66.0,62,29.96,10.0,NE,12.7,20.7,N/A,,Clear,50,2013-09-08 02:53:00
10:53 PM,77.0,64.0,64,29.98,10.0,ENE,11.5,19.6,N/A,,Clear,60,2013-09-08 03:53:00
11:53 PM,73.9,61.0,64,29.99,10.0,ENE,12.7,-,N/A,,Clear,60,2013-09-08 04:53:00